Wind_Speed
43 42 41 41 40 40 40 39 38 38 38 38 37 37 37 36 36 35 35 34 33 32 32 31 31 31 31 30 29 28 28 27 27 26 25 25 24 23 23 22 22 22 21 21 21 20 20 19 19 18 18 18 18 17 17 16 15 14 14 14 14 14 14 14 13 13 12 12 12 12 12 11 10 9 7 8 10 11 14 17 19 20 20 20 19 18 18 18
44 43 43 42 42 41 41 40 40 40 39 39 39 39 38 38 37 37 36 35 34 33 33 33 32 32 32 31 30 29 28 28 27 26 26 25 24 24 23 23 22 22 21 21 21 20 20 19 19 18 18 18 18 17 16 16 15 14 14 15 15 14 14 14 13 13 13 12 12 12 12 12 12 11 10 10 9 8 12 15 16 19 20 21 21 20 20 19
46 45 44 44 43 43 42 42 42 41 41 40 40 40 40 40 39 39 38 37 36 35 34 34 33 33 32 32 31 30 29 28 28 27 26 25 25 24 23 23 22 22 21 21 21 20 20 19 19 18 18 18 18 17 16 16 15 15 15 15 15 15 15 14 14 14 13 13 12 12 12 12 13 14 13 13 12 9 12 14 15 16 18 19 21 21 21 21
48 47 46 45 44 44 43 43 43 42 42 41 41 41 41 41 40 40 39 38 37 36 35 35 34 34 33 33 32 31 30 29 28 27 26 25 25 24 24 23 23 22 22 21 21 20 20 19 19 18 18 18 18 17 17 17 17 16 16 15 15 16 15 15 16 15 15 14 13 13 13 13 14 16 16 15 15 13 13 15 15 16 17 18 19 21 22 23
49 48 47 46 46 45 45 44 44 44 43 42 42 42 42 42 41 41 41 40 38 37 36 36 36 35 35 34 33 32 30 30 29 28 27 26 25 25 24 24 24 23 23 22 21 20 20 19 19 19 19 19 19 18 18 18 18 18 17 16 16 17 17 17 17 17 16 15 14 14 13 13 15 17 17 16 17 16 15 15 15 16 16 17 18 19 21 23
50 49 49 48 47 46 45 45 45 45 44 44 43 43 42 42 42 42 42 41 40 38 37 37 37 36 36 35 33 32 31 31 30 28 28 27 26 26 25 25 24 24 24 23 22 21 20 20 20 20 19 19 19 19 19 19 19 19 19 18 17 18 18 18 18 19 17 16 15 14 13 12 14 16 17 17 17 18 17 17 16 16 17 18 19 19 20 22
51 50 50 49 48 47 46 46 46 46 45 45 44 44 43 43 43 43 43 43 41 40 39 38 38 38 37 35 34 33 32 32 31 29 29 28 27 27 26 26 26 25 25 24 23 22 21 21 21 21 21 21 21 21 20 20 20 20 20 19 18 18 19 19 20 20 18 17 16 14 13 12 13 16 17 17 18 20 21 20 20 20 20 21 22 23 23 24
51 51 51 50 49 48 48 47 47 46 46 46 45 45 44 44 44 44 44 44 43 42 41 40 39 39 38 36 35 34 33 33 32 30 30 29 28 28 28 27 27 26 26 25 24 23 23 22 22 22 22 22 22 22 22 22 21 21 20 20 19 18 19 20 21 21 19 17 16 15 14 14 14 17 18 18 20 22 23 24 24 25 25 26 27 27 28 29
52 52 51 51 51 50 49 48 48 47 47 46 46 46 46 45 45 45 45 45 44 43 42 41 40 39 38 37 36 34 33 34 33 32 31 30 30 29 29 29 28 28 27 26 25 24 24 24 23 23 24 24 24 24 24 24 23 22 21 19 19 19 19 20 21 21 19 18 18 17 16 16 16 18 20 20 21 23 25 26 27 28 29 30 31 32 32 33
53 53 52 52 52 51 50 50 49 48 48 47 47 47 47 46 46 45 46 45 45 44 43 42 41 40 39 38 37 35 33 35 34 32 32 31 31 31 30 30 30 29 29 28 27 26 25 25 25 25 25 25 25 25 25 25 24 23 21 20 20 20 20 20 20 19 19 19 20 19 18 18 19 20 22 22 23 25 26 27 28 29 31 32 33 34 34 35
54 53 52 52 52 52 51 51 50 49 49 48 48 47 47 47 47 46 46 46 45 45 44 42 41 41 40 39 38 35 34 35 34 33 33 32 32 32 32 32 31 31 30 29 28 27 27 26 26 26 26 26 25 25 25 25 25 24 22 21 21 21 20 20 19 19 20 21 22 22 21 20 21 22 23 24 25 26 27 29 30 31 31 33 34 35 35 35
54 54 53 53 52 52 52 51 51 50 50 49 48 48 48 47 47 47 47 47 46 45 44 43 43 42 41 41 39 36 35 36 34 33 33 33 33 33 33 33 32 32 31 30 30 29 28 28 27 27 27 27 26 25 25 25 25 24 24 23 22 22 22 21 19 20 20 22 23 24 23 22 22 24 25 25 26 27 28 29 31 32 33 33 34 35 35 35
54 54 53 53 53 52 52 51 52 51 51 50 49 48 48 48 48 48 48 47 47 46 46 45 44 43 42 42 40 37 36 36 35 34 34 34 35 35 34 34 33 33 32 32 31 30 30 29 28 28 28 28 27 26 26 26 25 24 24 23 23 23 23 22 21 21 21 23 24 25 26 25 24 25 26 26 28 28 29 30 31 32 33 33 33 34 34 34
54 54 54 53 53 53 52 52 52 52 52 51 50 49 49 49 49 49 49 48 48 47 47 46 45 44 43 43 41 38 37 36 35 35 35 36 36 35 35 35 34 34 33 33 32 32 31 30 29 29 29 29 28 27 26 25 24 23 23 23 24 26 25 23 23 23 23 24 25 26 29 29 26 26 27 27 29 30 30 31 31 31 31 31 31 31 32 33
54 54 54 53 53 53 53 53 52 52 52 51 51 51 51 50 50 50 49 49 49 48 48 47 46 44 44 45 42 39 39 37 36 36 36 37 36 36 36 35 35 35 34 34 33 32 31 30 30 30 30 30 30 28 26 25 24 23 22 24 27 28 27 25 24 24 24 24 26 27 31 33 31 29 29 29 30 31 31 31 30 30 30 30 30 30 31 32
55 55 54 53 53 53 53 53 53 53 52 52 52 52 52 51 51 51 50 49 49 49 48 47 46 44 44 46 44 41 40 37 37 37 37 37 36 37 37 36 36 36 36 35 34 33 32 31 30 31 32 32 31 29 25 24 24 23 23 27 29 29 29 27 27 26 26 26 28 29 32 36 35 33 31 31 31 31 30 29 29 29 29 29 30 31 32 33
56 56 54 54 53 53 53 53 53 53 53 52 53 53 53 52 52 52 51 50 49 49 48 48 47 45 44 46 46 44 41 38 38 38 38 38 37 38 37 37 37 37 37 36 35 34 32 31 32 32 33 34 32 28 23 23 25 25 26 29 30 30 30 31 30 29 28 29 30 32 34 36 37 34 32 30 29 29 28 28 30 30 30 31 32 33 34 35
57 56 55 54 53 54 54 53 53 54 53 53 53 54 53 54 53 53 52 51 50 49 48 48 47 45 45 48 48 46 42 40 40 39 39 39 39 39 39 38 38 38 38 37 36 34 33 33 33 33 36 36 32 26 24 26 27 28 29 29 30 31 32 35 33 31 31 31 32 33 34 35 35 32 30 30 29 28 29 30 31 32 32 34 35 36 37 38
57 57 56 54 54 54 54 54 55 55 54 54 54 54 55 55 54 54 54 52 51 50 48 47 47 46 47 49 48 47 44 42 40 40 40 40 40 40 40 39 39 39 38 38 37 35 34 34 34 37 39 36 30 27 27 29 30 30 30 29 30 32 35 38 36 32 31 30 31 32 31 33 33 30 28 29 30 30 30 32 33 34 34 35 36 36 37 38
57 57 56 55 55 55 55 55 56 56 54 54 55 55 55 56 56 55 55 54 53 51 48 47 47 47 48 49 49 47 46 44 42 42 42 42 42 41 41 41 40 40 39 38 37 36 36 34 37 41 40 34 31 30 31 31 32 32 31 31 32 34 38 39 36 33 31 28 30 31 29 31 32 29 28 29 30 30 31 32 33 34 34 35 36 36 38 39
58 58 57 56 56 55 55 56 56 56 55 54 55 55 56 57 57 56 56 55 53 52 50 48 47 48 49 49 49 48 47 46 45 45 44 44 43 42 43 43 42 41 40 38 37 38 37 35 41 43 38 35 34 33 33 33 33 33 33 33 34 36 39 39 36 32 30 28 29 30 28 29 29 29 30 29 29 31 31 33 34 35 36 37 38 39 41 43
60 59 58 57 56 56 56 56 56 55 55 54 55 56 57 58 57 57 57 55 54 53 50 49 47 49 50 49 48 49 47 47 47 47 47 46 46 45 44 44 43 42 40 39 39 39 37 38 44 43 39 38 37 35 35 35 35 35 34 34 36 39 39 37 35 33 31 29 29 29 27 28 29 30 31 30 31 32 33 35 36 38 40 41 42 43 44 46
63 62 61 59 58 58 57 56 56 55 55 55 57 58 58 58 58 58 57 55 55 53 51 49 48 49 50 49 49 49 48 48 49 50 50 49 48 47 45 46 45 42 41 41 41 39 37 41 45 44 41 40 39 38 38 37 37 37 36 36 38 40 38 36 36 34 33 31 29 28 26 29 32 31 33 33 34 35 35 37 39 40 42 44 45 46 47 49
63 64 63 61 60 59 58 57 56 56 56 57 58 59 59 59 59 58 58 56 54 54 52 50 49 49 50 50 49 49 49 51 51 52 52 51 50 49 47 48 46 43 43 44 42 39 39 42 45 45 44 43 41 40 40 40 39 38 38 38 39 40 38 37 37 35 33 31 29 28 26 30 35 34 35 37 37 37 38 39 41 43 45 47 48 49 50 52
63 64 65 65 63 61 60 57 56 58 59 59 60 60 60 59 60 59 59 56 51 53 55 51 49 50 50 50 50 51 51 51 52 54 55 54 53 52 50 49 47 45 47 46 42 39 41 44 47 47 46 44 42 42 43 43 41 39 40 41 41 41 40 39 38 36 34 31 31 30 28 31 37 38 37 38 38 40 41 43 44 46 48 50 52 53 54 55
63 63 65 67 65 63 60 57 59 61 60 61 61 61 60 60 61 60 60 56 48 50 56 54 51 49 50 51 52 53 52 50 54 57 57 57 56 54 52 50 48 48 49 47 43 40 43 48 48 48 48 46 45 45 47 45 42 41 43 44 43 42 42 40 39 37 34 33 33 34 33 31 35 40 40 40 41 43 44 46 48 50 52 54 55 56 56 58
64 63 64 67 66 64 60 59 62 62 61 63 63 62 61 60 61 60 62 56 44 47 55 56 53 49 50 54 55 55 52 51 57 59 58 58 57 55 53 51 51 51 50 48 43 42 47 50 49 49 49 48 48 49 49 46 44 44 46 46 44 44 44 42 40 38 36 35 36 38 38 32 32 40 43 43 45 47 48 50 52 53 55 57 58 58 59 60
64 64 64 65 66 65 62 61 63 63 63 65 64 63 62 62 61 61 62 55 42 45 53 54 55 53 53 55 57 57 55 55 59 60 60 60 57 56 55 53 53 52 51 49 45 47 50 50 51 52 51 50 51 51 50 48 47 47 48 48 47 47 46 43 41 39 39 38 38 43 43 35 32 38 45 48 50 52 53 54 55 57 59 60 61 61 62 63
65 65 65 65 65 64 63 62 64 65 66 66 66 65 64 64 63 62 62 52 41 45 52 53 56 57 57 58 58 59 58 58 60 61 62 61 59 58 56 55 54 52 52 50 48 50 51 52 53 54 53 52 53 52 51 51 50 50 51 50 50 50 48 46 44 43 43 40 41 47 46 39 34 37 46 52 54 55 57 58 59 61 63 63 64 65 66 67
67 66 67 66 63 63 63 65 67 69 68 68 69 68 67 66 64 64 61 48 40 45 50 54 57 59 60 60 60 61 61 61 61 61 62 62 61 60 58 57 56 54 54 52 51 52 53 54 55 55 55 55 54 54 54 54 53 54 54 53 53 52 50 49 47 48 46 42 45 50 49 45 39 40 48 54 55 58 60 62 63 64 66 66 67 68 69 70
68 68 68 65 63 63 64 66 69 72 72 72 72 71 70 68 68 66 56 45 44 46 46 51 57 60 62 63 63 64 63 63 63 62 63 63 62 61 60 59 57 56 55 53 55 56 56 56 56 57 56 56 56 56 56 56 56 57 57 56 55 54 53 52 52 52 49 46 49 51 51 49 46 47 53 56 58 60 61 63 65 66 67 68 69 70 71 72
70 70 69 66 65 65 65 67 71 75 75 74 74 73 71 71 70 62 51 48 52 48 45 49 54 60 64 65 65 66 65 65 64 64 64 63 62 61 61 60 59 58 56 56 58 59 57 57 57 58 58 58 59 58 59 59 59 59 58 58 58 57 56 55 55 56 53 51 52 53 54 53 51 55 59 59 61 62 63 66 67 68 69 70 70 72 73 73
73 72 71 69 68 67 67 68 72 76 77 76 76 74 74 75 67 57 54 55 55 51 50 52 54 59 63 65 66 67 67 66 66 66 66 64 62 61 61 61 60 60 58 58 60 59 58 59 59 59 60 61 61 61 61 61 61 60 60 60 60 59 59 58 59 59 56 56 57 57 57 56 56 60 63 64 65 66 67 69 71 72 73 73 74 74 75 75
75 75 74 72 69 68 68 69 71 75 78 78 77 76 77 74 63 56 58 58 57 56 56 56 58 60 62 64 65 66 68 68 67 68 67 66 63 61 61 61 60 60 59 59 59 60 60 60 61 62 62 63 63 63 64 63 62 62 62 62 61 62 63 63 62 61 60 61 61 60 61 60 61 64 65 67 69 70 72 73 74 75 76 76 77 77 77 77
78 77 76 73 69 67 67 69 71 76 79 79 79 79 77 70 61 59 61 61 61 61 60 60 61 62 63 63 64 65 67 68 68 69 69 68 65 63 62 61 60 60 60 60 60 60 60 60 61 63 63 64 65 65 65 65 64 63 63 63 64 67 68 66 64 64 64 65 64 64 65 65 66 67 68 71 73 74 74 75 76 77 78 78 77 77 78 79
81 79 77 74 70 68 69 71 73 76 79 80 82 82 74 65 62 64 63 63 64 63 63 63 61 60 61 62 63 65 67 68 69 69 70 69 66 64 63 63 63 62 62 63 62 61 60 59 61 63 63 64 64 64 65 65 65 64 64 65 68 70 70 68 67 67 68 68 67 67 68 68 70 70 70 73 75 76 76 77 79 79 78 77 77 78 80 83
82 80 78 74 71 71 72 73 75 77 81 83 84 81 71 65 65 64 62 63 63 62 63 62 59 58 58 59 61 63 66 69 69 70 70 69 67 64 64 66 66 65 65 67 65 63 61 61 62 64 64 64 64 64 64 65 65 66 66 69 71 72 71 71 71 70 72 72 70 69 70 71 72 72 72 75 77 77 78 79 80 79 78 78 79 82 85 88
83 83 80 75 73 74 74 76 78 80 82 86 86 79 70 66 65 64 64 64 64 64 64 62 60 59 58 58 59 62 66 67 68 70 71 71 68 64 65 68 69 68 69 70 68 66 65 64 64 65 66 66 65 65 65 66 68 69 70 72 73 73 73 74 74 74 75 76 74 72 72 72 72 73 75 76 77 79 80 80 79 79 80 82 84 88 90 92
85 86 82 75 74 75 76 80 82 83 86 89 86 76 67 66 67 68 70 68 68 68 66 63 63 63 61 60 60 63 66 66 67 69 70 70 68 66 67 70 71 72 73 73 71 70 69 68 67 68 69 69 68 67 68 69 71 72 72 73 75 76 76 77 78 78 79 80 79 76 74 73 73 75 76 76 78 80 80 79 79 81 83 86 89 92 94 95
88 87 81 76 77 77 78 82 86 88 90 90 83 72 67 69 70 70 71 70 70 69 66 65 66 65 63 63 64 66 67 68 68 69 70 68 67 67 69 71 73 75 76 76 75 73 73 72 71 72 73 72 71 71 73 74 75 75 75 76 77 79 80 81 81 82 83 84 83 80 76 73 74 75 75 77 79 80 79 80 82 84 87 90 93 95 95 95
91 89 82 78 80 81 82 86 88 89 90 87 79 71 69 71 70 69 70 72 72 70 68 68 69 68 66 66 66 68 69 70 69 71 71 69 68 69 71 73 75 76 77 77 77 76 77 77 77 77 77 76 76 77 78 78 78 78 79 79 80 82 83 85 84 84 86 86 85 84 80 74 73 74 74 76 78 79 81 83 85 88 92 95 96 96 95 95
95 92 85 81 83 84 86 89 90 90 89 85 78 75 75 74 72 72 73 75 75 72 70 70 70 70 69 68 68 70 71 71 71 72 71 69 69 71 73 75 76 76 77 78 78 79 80 80 79 79 79 80 80 80 80 81 81 80 80 80 82 84 85 87 86 85 87 87 86 88 83 73 71 73 75 78 79 81 84 87 89 93 96 97 96 95 95 95
98 95 90 88 88 87 89 92 93 92 90 85 82 83 82 79 76 76 76 76 76 75 73 72 72 72 72 71 71 72 73 74 74 73 71 70 70 72 74 75 76 78 79 79 80 82 83 82 82 82 82 82 82 81 81 82 82 82 83 84 85 86 86 88 88 88 89 87 87 89 81 69 69 74 78 82 84 86 89 91 94 96 97 97 96 95 96 96
99 96 94 93 91 91 93 95 94 93 90 88 87 88 86 83 81 79 78 79 79 78 78 77 76 76 76 75 75 74 75 76 76 75 73 71 71 72 74 76 77 78 80 81 82 84 85 84 84 84 83 82 82 82 83 84 86 87 87 88 88 88 89 90 90 91 89 86 85 85 78 71 74 79 83 87 90 91 94 95 96 97 97 96 96 96 96 96
100 98 96 95 95 96 96 94 93 92 92 91 91 91 89 87 84 82 81 82 83 83 83 82 81 81 81 80 78 77 77 78 78 78 77 74 73 74 76 78 78 79 80 81 82 85 86 85 85 84 83 82 81 81 81 83 86 87 86 87 89 90 90 91 91 91 88 84 83 81 80 80 82 85 90 93 93 95 97 97 97 97 96 96 96 95 95 96
101 100 98 96 97 99 97 94 94 95 95 95 95 94 93 90 87 85 85 85 85 86 86 86 85 84 84 82 81 80 80 81 82 81 80 79 78 78 80 81 82 82 82 82 83 85 86 85 85 84 83 83 82 82 81 82 83 83 83 85 86 86 87 88 88 87 85 85 84 82 86 91 90 91 96 97 96 98 99 98 97 96 96 96 95 95 95 97
103 102 99 98 98 99 98 95 96 97 96 97 97 96 94 92 91 90 89 88 87 88 89 90 88 87 85 84 84 84 84 85 85 83 82 83 83 83 84 85 86 86 86 86 87 87 88 86 85 84 84 84 84 84 84 83 83 83 82 81 80 81 82 83 84 83 85 90 89 88 93 97 93 94 98 98 98 99 98 97 97 97 98 97 96 96 98 101
104 103 101 100 100 100 98 95 95 96 96 97 98 97 95 95 94 93 91 90 90 91 92 92 90 87 87 87 87 89 89 88 87 84 84 86 87 88 88 89 90 90 90 90 91 91 91 88 85 84 83 82 84 85 85 84 83 82 81 78 76 77 78 80 83 85 89 94 94 93 96 96 93 95 100 101 101 100 98 98 99 99 99 98 99 101 103 105
104 103 101 101 101 101 99 96 96 97 97 97 98 97 97 96 95 94 93 93 93 92 92 91 89 88 89 89 91 92 91 89 87 86 87 89 91 92 93 93 94 93 93 94 94 94 93 90 87 86 84 82 83 84 84 84 83 81 79 76 75 76 79 83 87 91 95 97 95 96 97 95 93 98 102 102 101 101 101 101 101 101 101 102 104 105 106 106
103 102 101 100 100 100 99 98 98 98 98 98 98 97 97 96 95 95 95 95 94 93 93 92 90 89 91 92 93 93 91 89 89 90 91 92 94 95 96 97 97 97 97 97 97 96 94 92 90 89 88 85 83 84 86 85 85 83 80 76 77 80 85 89 92 95 97 97 96 98 98 94 95 100 103 103 104 105 105 104 104 104 106 108 108 108 108 110
103 103 101 99 98 98 98 99 99 100 99 99 99 98 97 97 96 95 96 96 94 94 94 93 91 92 94 94 94 92 90 90 91 92 93 94 95 97 98 98 98 98 98 98 98 97 96 95 93 92 92 89 87 89 90 89 90 86 78 75 80 85 88 91 92 93 95 96 99 100 98 96 98 102 104 106 109 109 107 107 108 110 111 111 111 111 113 118
103 103 102 100 98 97 96 97 99 101 103 102 101 100 100 100 100 99 99 99 97 96 96 94 94 95 96 95 94 92 91 92 93 93 94 94 95 97 98 99 99 99 100 100 100 99 98 97 96 95 96 94 92 92 93 96 95 82 70 76 86 87 87 89 90 92 96 99 101 101 100 101 103 105 108 110 111 110 109 111 113 115 115 114 115 118 122 125
Wind_Direction
239 240 241 242 243 245 246 247 248 248 249 249 249 250 251 252 254 255 257 258 259 261 262 262 263 264 265 266 267 268 269 270 271 272 273 274 276 277 279 280 281 282 283 284 284 285 286 287 288 289 289 290 291 292 294 297 301 303 304 305 308 312 314 317 320 322 323 325 328 331 332 333 334 333 322 306 306 308 302 301 304 306 309 310 311 310 309 308
238 239 240 241 242 243 244 246 247 247 248 248 249 250 250 251 253 255 256 257 259 260 261 263 263 264 265 266 267 268 269 270 270 271 272 274 275 276 278 279 280 281 282 282 282 284 285 286 287 288 289 290 290 291 294 297 299 301 303 304 308 310 312 316 319 322 323 325 330 332 330 331 331 329 322 313 315 312 301 300 301 303 305 307 309 309 308 308
238 239 240 241 242 242 243 244 246 247 247 248 249 250 250 251 252 254 255 257 258 259 261 262 264 264 266 266 267 268 268 269 269 270 272 273 275 276 276 277 278 279 280 280 281 282 283 284 285 286 288 289 289 291 294 296 297 300 302 304 308 309 311 314 317 319 320 322 327 328 325 325 326 322 317 316 319 315 308 309 309 308 308 308 309 310 310 311
238 239 240 241 242 242 243 244 244 246 247 247 248 249 250 251 251 253 255 256 257 259 260 262 263 265 266 267 267 267 267 268 268 269 271 272 273 274 275 276 276 276 277 278 279 280 281 283 284 285 287 288 290 291 293 295 296 298 301 304 307 307 309 312 314 314 313 316 320 320 319 320 321 316 314 316 317 313 310 311 314 315 314 312 312 312 313 313
239 239 240 241 241 243 243 244 245 245 246 247 248 249 250 251 251 252 254 255 257 258 260 261 263 264 265 266 267 267 267 268 268 268 269 270 271 271 272 273 274 275 275 276 277 278 280 281 283 284 285 287 289 289 291 292 294 296 298 301 303 304 306 309 309 307 307 310 313 314 314 317 319 315 313 316 316 312 309 307 310 314 316 316 315 314 314 314
239 239 240 241 242 243 244 245 245 246 247 248 249 249 250 251 252 252 253 254 256 258 259 261 262 264 265 266 266 266 266 267 267 267 268 268 269 270 270 271 272 273 274 275 275 276 278 280 281 283 283 285 285 286 287 288 289 292 294 296 298 300 302 304 304 301 302 306 308 310 312 317 319 316 313 314 314 311 309 307 307 310 314 315 315 314 313 313
240 240 240 241 241 242 243 244 245 246 247 248 249 250 251 251 252 252 253 254 255 257 258 260 261 263 264 265 265 265 266 267 266 266 267 267 268 268 268 269 270 271 272 273 274 275 276 278 280 281 283 283 283 283 284 284 286 288 289 292 294 296 299 299 298 296 298 303 305 307 311 316 318 315 311 312 312 311 309 310 310 311 312 312 313 313 313 312
241 241 241 241 242 242 243 244 245 246 247 248 249 250 251 252 252 253 253 254 255 256 258 260 261 262 263 264 264 264 266 266 266 266 266 267 267 267 267 268 269 270 271 271 272 274 275 277 279 280 280 280 281 282 282 283 284 284 286 289 292 293 294 294 293 293 297 302 304 306 308 311 312 311 310 311 314 313 311 312 312 313 313 313 313 314 314 312
241 242 242 242 242 243 243 244 245 246 246 247 249 249 251 252 252 253 253 254 255 255 257 259 260 262 263 263 263 264 265 265 265 265 266 266 266 266 266 266 266 267 268 269 271 273 275 276 277 278 278 278 279 280 281 282 283 284 285 287 289 289 288 288 289 293 299 302 302 302 305 308 310 310 310 312 315 314 311 311 311 312 313 313 313 313 313 312
242 242 242 242 243 243 244 245 246 246 246 247 248 249 250 251 253 253 254 254 255 256 256 258 259 261 262 262 263 263 264 265 265 265 265 265 265 265 265 264 264 265 266 267 269 271 273 274 275 275 275 276 277 278 279 280 282 283 284 285 285 284 284 284 287 293 300 301 301 302 305 308 309 309 308 310 311 309 308 308 308 309 310 310 310 310 309 309
242 243 243 243 244 244 245 246 246 247 247 247 248 249 250 251 253 254 254 255 255 256 257 258 259 259 261 262 262 262 263 264 264 264 265 264 263 263 263 263 263 263 264 266 268 270 271 272 272 273 273 274 275 277 278 279 281 283 284 284 282 281 281 282 287 294 298 300 300 303 305 307 307 305 305 306 306 303 303 304 304 305 305 305 306 306 307 308
241 242 243 244 245 246 246 247 247 248 248 249 249 250 251 252 253 254 255 255 256 256 257 257 257 258 259 261 261 261 262 263 263 263 263 263 262 262 262 262 262 263 264 265 266 268 270 270 270 270 271 272 274 275 277 278 279 281 283 283 282 281 280 282 289 294 297 298 299 301 302 302 302 301 302 302 300 299 299 300 301 302 302 303 304 306 307 309
238 240 241 243 244 246 247 248 249 249 250 250 250 251 252 252 253 254 254 255 255 256 256 256 257 257 258 260 260 260 261 262 262 262 262 262 261 261 261 262 262 263 263 264 265 266 267 268 268 269 270 272 273 274 274 276 277 279 281 282 281 280 280 285 291 294 296 296 298 299 297 296 298 297 298 297 296 297 297 298 299 300 301 303 305 307 309 310
237 238 239 240 242 244 246 248 249 250 251 251 252 252 253 253 254 254 255 255 255 256 256 256 257 257 258 260 259 260 261 261 260 260 260 260 259 260 261 261 262 262 263 263 264 265 265 266 267 268 270 271 271 271 272 274 276 277 280 280 278 278 281 287 291 292 293 295 296 295 292 293 295 295 295 294 294 295 295 297 298 299 301 304 306 307 307 308
237 238 239 239 241 243 244 246 248 249 250 251 252 252 253 254 255 255 256 256 256 256 257 257 258 258 259 260 260 260 260 260 260 259 259 259 259 259 259 260 261 261 262 262 263 264 264 265 266 267 269 269 269 268 270 272 275 276 276 276 275 278 283 288 288 289 291 293 293 292 290 291 294 294 293 293 293 293 295 297 299 300 303 304 305 304 304 304
237 238 238 239 240 242 243 245 246 248 249 250 251 252 253 254 255 256 256 257 257 257 257 258 259 259 259 260 260 260 259 260 260 259 259 259 259 258 258 259 259 260 261 261 262 263 263 264 266 267 268 267 266 266 270 272 272 273 272 272 275 280 285 287 286 287 291 291 289 288 287 289 293 294 292 292 292 293 296 298 300 302 303 303 303 302 301 301
237 238 238 239 241 242 243 244 245 246 247 249 250 251 252 253 254 255 256 257 257 257 257 258 258 259 260 261 261 260 259 259 259 259 259 259 258 258 258 258 258 259 260 261 261 261 262 264 265 266 266 264 264 267 270 268 267 268 269 271 276 281 283 284 285 289 291 290 288 287 286 287 291 293 294 293 292 294 296 298 300 301 301 300 300 299 298 297
238 239 239 239 241 242 243 244 245 246 247 248 249 250 251 252 253 254 255 256 257 257 257 257 258 259 260 260 260 260 260 259 259 259 259 259 258 258 257 257 258 259 259 260 260 261 262 263 264 265 263 261 264 267 264 261 263 265 268 272 276 278 279 281 286 291 290 289 287 286 286 286 289 293 294 293 293 295 297 299 299 299 298 296 296 296 296 296
238 240 240 240 241 242 244 245 246 247 247 248 248 250 250 251 252 253 254 255 256 256 256 257 257 257 258 259 260 261 261 260 260 260 260 259 258 258 258 258 258 258 259 259 260 261 262 263 264 261 260 261 264 263 258 259 262 265 268 271 273 275 277 280 287 290 289 289 286 285 286 285 288 292 292 292 294 296 298 298 297 296 296 295 295 295 296 297
238 240 240 241 242 243 244 245 246 247 247 248 248 249 250 250 251 251 252 253 254 255 255 256 256 256 257 258 259 260 261 261 261 260 260 259 258 258 258 258 258 258 258 259 260 261 260 261 261 259 259 262 262 258 258 260 262 265 268 269 270 273 276 281 287 289 288 288 284 285 287 284 288 292 291 291 294 296 298 297 297 297 297 296 296 296 297 297
237 239 240 241 242 244 246 246 247 247 247 248 249 249 250 250 249 250 250 251 252 253 254 255 255 256 256 256 258 259 260 261 261 260 260 259 259 258 258 258 258 258 259 259 260 260 259 259 258 258 261 261 259 258 259 261 263 265 266 268 271 272 275 281 285 286 286 285 283 285 288 285 287 290 290 293 295 296 296 296 295 296 296 296 296 296 296 297
235 236 238 240 241 244 245 247 248 249 248 249 249 249 250 250 250 250 249 250 251 251 252 253 254 255 255 256 257 258 258 260 260 261 260 260 259 258 258 259 258 258 259 260 259 258 258 257 256 259 261 260 259 260 261 262 263 264 266 269 271 272 275 279 281 282 283 283 282 285 288 286 287 289 291 294 294 293 293 293 294 296 296 297 298 299 299 300
236 235 236 237 240 242 244 246 248 250 250 250 250 249 250 250 250 250 250 249 250 251 251 252 253 254 255 255 255 256 257 259 260 260 260 260 260 259 259 259 259 259 260 259 257 257 257 256 257 260 260 259 260 261 262 263 263 265 267 269 270 272 274 275 277 280 281 281 281 282 285 285 285 288 290 290 290 291 293 295 297 298 298 300 301 302 304 305
241 239 237 236 237 240 242 244 247 250 251 252 252 251 251 250 250 250 250 249 250 252 252 251 253 254 255 255 255 256 256 257 258 260 260 260 260 260 259 259 260 260 259 258 258 258 257 257 258 259 259 260 261 262 263 263 263 265 268 269 269 269 271 273 275 277 277 277 277 279 282 283 284 287 288 289 291 293 296 298 298 298 299 300 302 304 305 306
241 242 241 238 237 238 240 242 246 249 250 252 253 253 252 252 251 251 250 248 248 252 254 252 252 253 255 256 255 255 255 256 259 259 260 260 260 260 259 260 261 261 260 259 259 259 259 257 257 258 260 261 262 262 262 263 264 266 267 268 267 266 269 272 272 273 274 274 275 278 278 280 284 287 288 290 293 295 296 296 296 296 297 299 301 303 304 305
239 241 243 241 239 238 238 240 245 247 249 252 252 253 253 253 253 252 251 248 244 249 255 254 252 252 255 256 255 254 254 255 258 258 258 259 259 260 260 261 261 260 260 260 260 260 259 258 258 259 260 261 262 261 262 264 266 266 266 266 265 265 268 270 270 270 271 270 273 276 275 277 284 286 287 291 293 292 292 293 293 294 296 298 301 302 303 303
239 239 242 243 241 240 238 239 243 246 248 250 251 252 253 254 254 254 252 249 242 246 253 256 255 253 254 255 255 254 253 254 256 256 257 258 259 260 261 261 261 261 261 262 262 261 259 259 260 260 260 261 261 261 262 265 266 264 265 266 264 264 266 268 268 268 268 269 272 274 273 276 281 283 287 290 289 288 289 290 290 292 294 297 299 300 301 302
240 239 240 242 242 242 240 239 242 244 247 249 250 251 253 254 254 254 253 248 241 245 250 253 256 254 253 254 255 255 253 252 254 256 257 258 259 260 261 261 261 262 263 263 262 260 260 261 262 261 261 261 261 262 264 265 264 263 265 265 263 263 266 267 267 267 267 268 271 271 273 278 280 282 285 286 285 286 287 287 288 290 293 294 296 298 299 300
239 240 240 240 241 242 242 242 242 243 245 248 249 250 251 252 253 254 253 248 244 247 249 251 253 254 253 253 253 255 254 253 253 255 256 258 259 260 261 261 262 263 264 264 263 262 262 262 262 262 262 262 262 264 265 265 264 264 265 265 263 263 266 267 267 267 268 269 270 270 274 279 280 281 282 281 283 284 285 286 288 290 291 292 294 296 297 297
239 240 241 240 240 241 243 244 244 244 244 245 247 248 249 250 251 251 250 249 249 249 248 250 251 253 254 254 253 253 254 254 254 254 256 257 259 260 261 262 263 263 263 264 264 263 262 262 262 263 263 263 264 265 265 265 265 265 265 265 263 263 265 266 266 267 269 270 269 271 275 279 280 279 277 277 280 281 283 285 287 288 289 291 292 294 294 294
239 240 241 240 240 241 242 244 246 246 244 244 245 246 247 248 249 249 249 251 250 245 246 252 253 253 253 253 254 253 253 253 254 254 255 256 258 260 261 262 263 263 263 264 264 263 262 262 263 263 264 264 265 265 265 266 266 266 266 266 265 264 264 265 266 268 270 270 270 272 276 278 280 278 275 276 277 279 282 283 284 284 285 287 289 290 290 291
240 241 241 240 240 241 241 243 246 247 246 245 245 245 246 246 247 249 250 251 249 244 244 248 251 252 252 252 253 254 254 254 254 254 255 255 257 259 260 262 262 263 262 262 262 262 263 263 264 265 265 265 264 265 265 265 266 267 268 267 265 263 263 264 266 267 270 271 271 273 275 277 279 278 276 277 278 280 281 281 281 282 283 285 286 287 288 289
240 240 240 240 240 240 241 242 244 247 247 247 246 246 246 246 247 248 249 249 249 247 244 243 246 250 252 252 253 253 254 255 255 255 255 256 256 257 259 261 262 263 263 262 263 263 264 264 265 264 264 264 265 265 265 266 268 268 268 266 264 263 262 263 264 267 270 271 271 273 275 276 277 277 278 279 281 281 282 282 283 283 284 285 285 287 288 290
240 240 240 239 239 239 240 242 244 246 248 248 248 247 247 248 249 249 250 250 250 249 246 243 242 245 249 251 252 253 255 256 257 258 258 257 257 258 259 260 261 263 264 263 263 263 263 263 264 264 264 265 265 266 267 268 268 268 267 265 264 263 262 262 263 267 269 270 271 273 274 275 275 276 278 281 282 283 283 284 285 285 285 285 286 288 290 292
241 241 240 239 238 240 241 242 244 246 248 249 250 249 248 250 251 251 252 251 250 250 248 245 243 243 246 250 252 254 256 257 259 259 260 260 260 260 260 261 262 262 263 263 263 263 263 263 264 264 264 264 265 266 267 268 268 267 267 266 265 264 263 264 265 267 268 270 272 274 274 276 276 278 280 281 282 283 284 285 285 285 286 286 287 289 291 293
242 242 242 241 240 240 241 242 243 245 247 248 249 249 249 250 251 251 251 252 253 254 252 249 248 247 248 250 253 255 256 257 258 259 260 261 261 262 262 262 262 262 263 263 263 263 264 264 265 265 265 265 265 266 267 267 267 267 267 267 266 265 266 267 267 268 269 271 272 273 274 276 278 280 282 283 283 284 284 285 285 285 285 286 288 290 291 292
243 244 243 243 242 242 242 242 242 243 245 246 247 248 249 249 248 249 250 251 253 255 254 252 252 251 250 251 254 255 256 256 256 258 260 260 261 262 263 263 263 262 263 263 263 263 264 265 265 266 266 266 267 267 267 267 267 268 267 267 267 267 269 270 270 270 271 271 271 272 274 277 279 282 283 283 284 284 284 284 284 285 286 288 290 291 291 292
244 244 244 244 244 245 245 244 243 243 244 245 246 246 247 248 248 250 250 250 250 252 252 252 252 251 250 250 251 254 255 255 256 257 258 259 260 261 263 263 263 263 263 263 263 263 263 263 264 266 267 267 267 267 268 269 269 268 268 268 269 270 271 271 272 272 272 272 272 273 275 278 282 284 284 284 284 283 283 283 283 285 287 289 290 290 291 292
243 244 244 245 246 247 247 247 246 245 245 245 246 248 249 248 247 248 249 248 248 249 250 251 251 250 250 249 250 252 254 255 256 258 259 259 259 260 261 262 263 263 262 262 262 262 263 263 264 265 266 266 267 268 268 268 268 268 269 270 271 272 272 272 272 272 273 273 274 275 277 281 284 285 285 285 284 283 282 282 284 286 288 289 289 290 291 292
243 243 243 243 245 246 246 247 246 246 247 248 250 250 249 247 246 246 248 249 249 249 250 250 251 251 251 250 250 251 253 255 256 258 259 259 260 260 260 261 262 262 262 262 262 263 263 264 263 263 264 266 267 267 266 266 268 269 270 271 272 272 272 272 272 273 274 276 278 279 281 284 285 286 285 284 283 282 282 283 284 286 287 287 288 289 291 293
242 243 242 242 243 244 244 245 245 246 248 250 251 251 249 247 246 246 247 249 250 250 249 249 250 251 251 251 251 252 253 254 255 257 258 259 260 260 260 260 261 262 263 264 264 264 264 264 264 264 265 265 265 265 266 267 269 270 271 272 272 272 271 271 272 275 277 278 280 282 283 285 286 286 284 282 281 281 282 283 284 285 286 287 288 290 292 294
242 242 241 240 241 242 243 245 246 247 248 249 251 250 248 246 244 243 245 247 249 249 249 249 250 251 251 252 252 253 254 255 255 256 257 258 259 260 260 261 262 263 264 265 265 265 265 264 264 264 265 265 265 266 268 269 270 271 271 271 271 270 271 272 274 276 277 279 282 283 284 286 286 285 283 282 281 281 281 282 283 284 285 287 288 291 293 295
243 243 242 240 240 241 242 244 245 246 248 249 249 249 248 246 245 243 244 246 248 249 249 250 251 251 252 252 252 253 254 255 255 256 257 258 259 261 262 262 263 264 264 265 265 265 265 265 265 265 265 266 267 268 269 270 270 270 270 270 270 272 273 274 275 276 277 280 282 282 284 286 285 283 282 281 281 281 281 282 283 284 286 287 290 293 295 297
244 244 244 243 242 242 242 243 245 248 249 249 249 249 249 248 248 246 245 245 247 248 248 249 250 251 251 251 252 252 254 255 257 258 258 259 260 261 262 263 263 264 264 265 265 265 266 266 266 266 266 267 268 268 269 269 269 269 270 271 272 273 274 275 276 277 279 281 282 282 284 286 284 282 280 280 280 281 282 282 283 285 287 289 292 295 296 298
243 244 244 244 243 242 242 244 245 247 248 248 248 249 249 248 248 248 247 246 247 247 249 249 249 250 251 251 252 253 254 256 258 259 259 260 260 261 262 263 264 264 265 265 265 266 266 267 267 267 268 268 268 268 268 269 269 271 273 274 274 274 275 276 278 279 280 281 281 283 286 285 282 280 279 279 280 281 282 283 284 286 289 291 294 296 298 300
242 243 243 244 244 244 243 243 244 245 246 248 249 249 250 250 250 250 249 249 248 249 250 251 251 251 252 252 253 254 255 256 257 258 260 261 261 262 262 263 264 264 265 265 266 266 267 267 268 268 269 268 268 268 268 269 271 273 274 275 275 276 277 277 278 280 281 281 281 283 283 281 280 280 280 281 282 282 283 285 287 290 292 294 296 299 301 303
241 241 242 242 243 244 244 243 244 246 248 249 250 251 251 251 251 250 250 250 250 250 251 251 252 253 254 255 255 255 255 255 256 257 259 261 262 263 263 264 264 264 265 265 266 266 268 268 269 269 269 269 269 269 269 271 272 274 275 276 276 277 277 278 279 280 281 281 281 281 280 279 281 282 282 283 284 284 286 289 292 295 296 298 300 302 304 305
240 241 241 241 242 243 244 244 245 247 248 249 251 251 251 251 251 251 252 252 251 251 252 253 253 254 255 255 255 255 255 256 257 258 259 260 261 262 262 263 263 264 265 266 267 268 269 270 271 272 272 272 271 271 271 272 273 274 276 277 277 276 277 277 278 279 279 279 280 281 280 282 284 285 285 286 287 288 291 294 297 298 300 302 304 305 306 307
239 240 241 241 241 242 243 243 244 245 247 248 250 251 251 251 252 252 252 252 252 252 252 254 254 255 255 255 255 256 257 258 259 259 259 259 260 261 261 262 263 264 266 267 268 270 271 272 274 275 275 274 272 272 271 271 271 272 273 275 275 274 275 276 277 277 278 280 281 282 282 284 286 287 288 289 291 294 297 299 300 301 303 305 306 307 308 308
237 238 239 240 241 242 243 243 243 244 246 248 249 250 252 252 253 253 253 253 253 254 254 255 255 256 255 255 255 256 258 259 259 259 259 260 261 262 262 263 264 265 266 268 269 271 272 273 274 275 275 273 272 272 271 270 269 268 269 271 273 273 273 275 275 276 278 281 282 283 284 286 288 290 291 294 297 299 300 301 303 304 306 306 307 308 309 310
235 237 237 238 239 241 242 243 244 244 245 246 248 249 250 252 253 254 254 255 255 255 255 256 256 256 256 257 257 258 259 260 260 260 261 261 262 263 264 264 265 267 268 269 270 272 273 274 276 276 276 275 274 273 273 272 270 268 269 273 275 273 273 274 275 278 280 283 284 285 287 290 292 294 296 299 300 300 301 303 305 306 307 307 308 310 311 312
234 235 236 236 237 239 240 242 244 245 245 245 246 248 249 250 251 252 252 253 254 254 255 255 255 256 257 258 259 260 260 260 261 261 262 263 264 264 265 266 267 268 270 271 272 273 275 276 277 277 277 277 276 276 276 275 273 272 275 278 277 276 276 277 279 282 284 286 288 290 293 295 296 297 299 299 299 301 304 305 306 307 308 309 310 311 312 312
Height
10774 10776 10778 10779 10781 10782 10784 10785 10787 10788 10789 10791 10792 10793 10793 10794 10794 10795 10796 10797 10798 10799 10799 10800 10800 10801 10801 10802 10802 10803 10804 10804 10805 10805 10805 10805 10806 10806 10806 10806 10806 10806 10806 10807 10807 10807 10808 10808 10809 10809 10809 10809 10809 10810 10810 10810 10810 10810 10810 10810 10810 10810 10810 10811 10811 10812 10812 10813 10813 10813 10813 10813 10813 10813 10812 10811 10811 10811 10809 10808 10808 10808 10809 10810 10811 10811 10812 10812
10770 10772 10774 10775 10777 10779 10780 10782 10783 10784 10785 10787 10788 10789 10789 10790 10791 10792 10792 10793 10795 10796 10796 10797 10797 10798 10798 10799 10799 10800 10801 10801 10802 10802 10803 10803 10803 10803 10804 10804 10804 10804 10805 10805 10805 10805 10806 10806 10806 10807 10807 10807 10807 10808 10808 10808 10808 10808 10808 10808 10809 10809 10809 10809 10810 10810 10811 10811 10811 10812 10811 10811 10811 10811 10811 10810 10811 10811 10809 10808 10808 10808 10808 10808 10808 10808 10809 10809
10766 10768 10770 10771 10773 10775 10776 10778 10779 10780 10781 10783 10784 10785 10786 10787 10788 10788 10789 10790 10791 10793 10793 10794 10794 10795 10795 10796 10796 10797 10798 10799 10799 10800 10800 10800 10801 10801 10801 10801 10802 10802 10803 10803 10803 10803 10803 10804 10804 10804 10804 10804 10805 10806 10806 10806 10806 10806 10806 10806 10807 10807 10807 10808 10808 10809 10809 10809 10810 10810 10810 10810 10809 10809 10808 10808 10809 10810 10809 10808 10808 10807 10807 10806 10805 10805 10805 10806
10762 10764 10765 10767 10769 10771 10772 10774 10775 10776 10777 10779 10780 10781 10782 10783 10784 10785 10786 10787 10788 10789 10790 10790 10791 10791 10792 10792 10793 10794 10795 10796 10796 10797 10798 10798 10798 10798 10799 10799 10799 10800 10800 10801 10801 10801 10801 10802 10802 10802 10802 10802 10802 10803 10804 10804 10804 10804 10804 10804 10805 10805 10805 10806 10806 10806 10807 10807 10808 10808 10808 10808 10807 10806 10806 10806 10807 10807 10807 10806 10806 10806 10805 10805 10804 10803 10803 10803
10757 10759 10761 10763 10765 10767 10768 10770 10771 10772 10774 10775 10776 10777 10778 10779 10780 10781 10782 10784 10785 10786 10787 10787 10788 10788 10789 10789 10790 10791 10792 10793 10793 10794 10795 10795 10796 10796 10796 10796 10797 10797 10798 10799 10799 10799 10799 10799 10799 10800 10800 10800 10800 10801 10801 10801 10801 10802 10802 10803 10803 10803 10803 10804 10804 10804 10804 10805 10805 10806 10806 10806 10805 10804 10803 10804 10804 10804 10804 10804 10804 10804 10804 10803 10803 10802 10802 10800
10753 10755 10757 10758 10760 10762 10764 10765 10767 10768 10770 10771 10772 10773 10774 10775 10777 10778 10779 10780 10781 10783 10783 10784 10784 10785 10786 10786 10787 10788 10789 10789 10790 10792 10792 10793 10793 10793 10794 10794 10794 10795 10795 10796 10797 10797 10797 10797 10797 10797 10797 10797 10797 10798 10799 10799 10799 10800 10800 10801 10801 10801 10801 10801 10801 10801 10802 10803 10803 10803 10804 10804 10803 10802 10801 10801 10801 10800 10800 10801 10801 10802 10802 10801 10801 10801 10800 10800
10748 10750 10752 10754 10756 10758 10759 10761 10763 10764 10765 10767 10768 10769 10771 10772 10773 10774 10775 10776 10778 10779 10780 10780 10781 10782 10782 10783 10784 10785 10786 10786 10787 10789 10789 10790 10791 10791 10791 10791 10792 10792 10793 10794 10794 10795 10795 10795 10795 10794 10795 10795 10795 10795 10796 10797 10797 10797 10798 10798 10799 10799 10799 10799 10799 10799 10799 10800 10801 10801 10802 10802 10802 10800 10799 10799 10798 10797 10797 10797 10798 10798 10799 10798 10798 10798 10798 10798
10744 10746 10748 10750 10751 10753 10755 10756 10758 10760 10761 10763 10764 10766 10767 10768 10769 10770 10771 10772 10774 10775 10776 10777 10777 10778 10779 10780 10781 10782 10783 10783 10784 10786 10786 10787 10788 10788 10788 10789 10789 10789 10790 10791 10791 10792 10792 10792 10792 10792 10792 10792 10792 10793 10793 10794 10794 10795 10796 10796 10797 10797 10797 10796 10796 10796 10797 10798 10798 10799 10799 10800 10799 10798 10797 10797 10796 10795 10794 10794 10794 10794 10795 10795 10795 10795 10795 10795
10739 10742 10743 10745 10747 10749 10750 10752 10754 10755 10757 10759 10760 10761 10762 10763 10764 10766 10767 10768 10769 10771 10772 10773 10774 10775 10775 10777 10777 10778 10780 10780 10780 10782 10783 10784 10784 10785 10785 10786 10786 10786 10787 10788 10788 10789 10789 10789 10789 10789 10789 10789 10790 10790 10790 10791 10791 10792 10793 10794 10794 10794 10795 10794 10793 10793 10794 10795 10795 10796 10797 10797 10797 10795 10794 10794 10794 10793 10792 10792 10792 10792 10792 10791 10791 10791 10791 10791
10734 10736 10738 10741 10742 10744 10746 10748 10749 10751 10753 10754 10755 10757 10758 10759 10760 10762 10763 10764 10765 10767 10768 10769 10770 10771 10772 10773 10773 10775 10777 10776 10777 10779 10780 10781 10781 10781 10782 10782 10783 10783 10784 10784 10785 10786 10786 10786 10787 10787 10786 10786 10787 10787 10788 10787 10788 10789 10790 10791 10792 10792 10792 10792 10791 10791 10791 10792 10792 10793 10794 10795 10794 10793 10792 10792 10792 10791 10790 10791 10790 10790 10790 10789 10789 10788 10788 10788
10729 10731 10734 10736 10737 10740 10741 10743 10745 10747 10748 10750 10751 10753 10754 10755 10756 10757 10758 10760 10761 10763 10764 10766 10767 10768 10769 10769 10769 10772 10774 10773 10774 10776 10776 10777 10778 10778 10778 10779 10779 10780 10781 10781 10782 10782 10783 10783 10783 10783 10783 10783 10784 10785 10785 10785 10785 10786 10787 10788 10788 10788 10789 10789 10790 10790 10790 10789 10789 10789 10791 10792 10792 10791 10790 10790 10790 10789 10788 10788 10788 10788 10788 10787 10786 10785 10785 10784
10723 10726 10729 10731 10733 10735 10736 10738 10740 10742 10744 10745 10747 10749 10750 10751 10752 10753 10754 10755 10757 10758 10760 10762 10763 10764 10765 10765 10766 10768 10770 10770 10771 10772 10773 10773 10774 10774 10775 10775 10776 10776 10777 10778 10778 10779 10779 10779 10780 10780 10780 10780 10781 10782 10781 10782 10782 10783 10784 10784 10785 10785 10785 10786 10788 10788 10788 10787 10786 10786 10787 10789 10789 10788 10788 10787 10787 10786 10786 10785 10785 10784 10784 10783 10783 10782 10781 10780
10717 10720 10722 10725 10727 10729 10731 10733 10735 10737 10738 10741 10743 10744 10745 10746 10747 10749 10750 10751 10753 10754 10756 10757 10759 10760 10761 10761 10762 10765 10766 10766 10767 10768 10769 10770 10770 10770 10771 10771 10772 10773 10773 10774 10775 10775 10775 10776 10776 10777 10777 10777 10778 10778 10779 10779 10780 10781 10781 10781 10781 10781 10782 10783 10785 10785 10785 10784 10784 10783 10782 10785 10787 10786 10785 10784 10783 10782 10782 10781 10781 10780 10780 10779 10779 10778 10777 10777
10711 10714 10716 10719 10721 10724 10726 10728 10730 10731 10733 10736 10738 10739 10740 10741 10743 10744 10745 10747 10748 10750 10751 10753 10755 10757 10758 10757 10758 10761 10762 10763 10764 10765 10765 10765 10766 10767 10767 10768 10768 10769 10769 10770 10771 10771 10772 10772 10773 10773 10773 10774 10774 10775 10776 10777 10777 10778 10778 10777 10777 10777 10778 10780 10781 10781 10782 10781 10781 10780 10777 10779 10783 10783 10781 10780 10779 10778 10778 10777 10777 10776 10776 10776 10775 10775 10774 10774
10706 10708 10711 10713 10716 10718 10720 10722 10724 10725 10727 10730 10732 10734 10735 10736 10738 10739 10741 10742 10744 10746 10747 10749 10751 10753 10754 10753 10754 10757 10758 10759 10760 10761 10761 10761 10762 10763 10763 10764 10764 10765 10765 10766 10766 10767 10768 10768 10769 10769 10770 10770 10770 10771 10773 10774 10775 10775 10775 10773 10772 10773 10775 10777 10778 10778 10779 10778 10778 10776 10773 10772 10777 10779 10778 10776 10775 10774 10774 10773 10773 10772 10772 10772 10772 10771 10771 10770
10700 10702 10705 10708 10710 10712 10714 10716 10717 10719 10722 10724 10726 10728 10729 10731 10733 10734 10736 10737 10739 10741 10743 10745 10747 10749 10751 10749 10750 10752 10754 10756 10756 10757 10757 10758 10759 10759 10759 10760 10760 10761 10761 10762 10763 10763 10764 10765 10766 10766 10766 10765 10766 10768 10771 10772 10771 10772 10771 10769 10769 10769 10771 10772 10773 10774 10776 10776 10775 10773 10770 10768 10770 10773 10773 10773 10771 10770 10770 10769 10769 10769 10768 10768 10768 10767 10767 10766
10694 10696 10699 10702 10704 10706 10708 10709 10711 10713 10715 10718 10720 10722 10724 10726 10727 10729 10731 10732 10734 10736 10738 10741 10742 10745 10747 10745 10746 10747 10750 10752 10752 10753 10753 10754 10755 10755 10756 10756 10756 10757 10757 10758 10759 10759 10761 10762 10762 10762 10762 10761 10762 10766 10769 10768 10767 10768 10768 10766 10766 10766 10766 10767 10769 10771 10773 10773 10771 10770 10768 10765 10765 10768 10768 10768 10767 10766 10766 10766 10765 10765 10764 10764 10763 10763 10763 10763
10688 10690 10693 10696 10699 10700 10702 10704 10705 10707 10709 10712 10714 10715 10718 10720 10721 10724 10725 10727 10729 10731 10734 10736 10738 10742 10742 10740 10741 10742 10746 10748 10748 10749 10749 10750 10750 10751 10751 10752 10753 10753 10753 10754 10754 10755 10757 10758 10758 10758 10756 10756 10760 10764 10765 10764 10763 10764 10764 10764 10763 10763 10762 10762 10764 10768 10769 10769 10768 10766 10765 10762 10761 10763 10763 10762 10762 10762 10762 10762 10761 10761 10761 10760 10760 10759 10759 10758
10683 10685 10688 10691 10693 10694 10696 10698 10699 10701 10703 10706 10708 10710 10711 10713 10715 10718 10719 10722 10724 10726 10729 10732 10734 10736 10737 10736 10737 10738 10741 10743 10744 10745 10745 10745 10746 10747 10747 10748 10749 10749 10749 10750 10751 10752 10753 10754 10755 10752 10750 10753 10758 10761 10760 10759 10759 10760 10761 10761 10761 10760 10758 10757 10760 10764 10765 10765 10763 10762 10762 10758 10757 10759 10759 10757 10757 10758 10758 10757 10757 10756 10756 10756 10755 10755 10754 10754
10677 10679 10682 10685 10687 10688 10690 10692 10693 10695 10698 10700 10702 10704 10705 10707 10709 10711 10713 10716 10718 10720 10724 10727 10729 10731 10732 10731 10733 10734 10736 10738 10740 10740 10740 10741 10741 10743 10743 10743 10744 10744 10745 10746 10748 10749 10749 10751 10749 10745 10746 10752 10755 10756 10755 10756 10756 10756 10757 10758 10758 10756 10754 10753 10757 10760 10760 10761 10759 10758 10758 10755 10753 10754 10754 10754 10754 10753 10753 10753 10752 10751 10751 10751 10751 10751 10750 10749
10670 10673 10676 10678 10680 10682 10684 10686 10687 10689 10692 10695 10696 10698 10699 10700 10702 10705 10707 10710 10712 10715 10719 10722 10724 10726 10726 10727 10729 10730 10732 10733 10734 10734 10735 10736 10737 10738 10738 10738 10739 10740 10741 10743 10744 10744 10745 10747 10742 10740 10745 10749 10750 10751 10751 10752 10752 10752 10753 10753 10754 10753 10751 10750 10753 10755 10756 10757 10755 10754 10754 10752 10750 10750 10749 10750 10750 10749 10749 10748 10748 10747 10746 10746 10746 10746 10745 10744
10663 10666 10668 10672 10675 10676 10678 10680 10682 10684 10686 10689 10690 10691 10692 10693 10696 10699 10701 10704 10707 10709 10713 10716 10719 10720 10720 10723 10725 10725 10728 10728 10728 10729 10729 10730 10731 10732 10733 10733 10734 10735 10737 10739 10739 10739 10742 10742 10736 10737 10743 10744 10745 10746 10747 10748 10748 10748 10748 10749 10749 10747 10748 10748 10749 10751 10752 10753 10752 10751 10751 10748 10746 10746 10745 10746 10746 10745 10745 10744 10743 10742 10741 10741 10740 10740 10739 10739
10657 10659 10661 10665 10668 10669 10672 10674 10676 10678 10681 10683 10683 10684 10685 10687 10690 10692 10695 10699 10701 10704 10708 10711 10714 10715 10715 10718 10719 10721 10723 10723 10722 10723 10723 10724 10725 10726 10729 10728 10728 10732 10733 10733 10733 10736 10739 10736 10732 10735 10738 10738 10740 10742 10742 10743 10743 10743 10744 10745 10744 10742 10744 10745 10745 10747 10748 10748 10748 10748 10748 10744 10742 10742 10741 10741 10741 10740 10740 10739 10737 10736 10735 10735 10734 10734 10734 10733
10652 10654 10656 10658 10660 10663 10666 10668 10671 10673 10674 10676 10676 10677 10678 10680 10682 10685 10687 10693 10698 10700 10702 10706 10709 10710 10710 10712 10714 10716 10718 10717 10717 10717 10716 10718 10718 10720 10723 10722 10724 10728 10727 10727 10729 10734 10735 10731 10729 10730 10732 10734 10736 10737 10737 10737 10738 10739 10739 10739 10739 10738 10740 10741 10741 10742 10743 10744 10744 10744 10745 10741 10737 10738 10738 10736 10736 10735 10734 10734 10732 10731 10730 10729 10729 10728 10728 10727
10645 10647 10650 10651 10653 10656 10658 10663 10667 10665 10666 10668 10669 10669 10671 10673 10675 10677 10680 10686 10696 10697 10695 10700 10703 10704 10705 10707 10709 10709 10710 10712 10712 10710 10710 10711 10711 10713 10716 10717 10720 10722 10720 10721 10726 10730 10729 10726 10725 10725 10726 10729 10731 10732 10731 10731 10734 10735 10735 10734 10734 10734 10735 10737 10737 10738 10739 10740 10739 10740 10742 10739 10734 10733 10733 10732 10731 10730 10729 10728 10727 10725 10724 10723 10723 10722 10722 10721
10636 10640 10643 10645 10647 10649 10653 10660 10659 10656 10660 10661 10661 10662 10665 10667 10668 10671 10673 10679 10693 10695 10690 10693 10697 10700 10701 10700 10701 10700 10704 10708 10704 10701 10703 10703 10704 10707 10710 10713 10715 10715 10715 10716 10722 10727 10724 10719 10719 10721 10722 10724 10726 10726 10724 10725 10730 10731 10729 10728 10729 10730 10730 10732 10732 10733 10735 10735 10735 10735 10736 10738 10734 10728 10726 10726 10725 10723 10722 10721 10720 10719 10718 10717 10717 10716 10715 10714
10629 10633 10635 10638 10641 10644 10649 10653 10649 10650 10654 10652 10653 10656 10658 10660 10661 10665 10665 10673 10691 10694 10686 10687 10690 10695 10695 10692 10692 10693 10698 10702 10694 10693 10696 10696 10698 10701 10704 10707 10708 10708 10709 10712 10718 10721 10716 10713 10715 10716 10717 10719 10720 10719 10719 10721 10725 10725 10722 10722 10725 10725 10725 10727 10727 10729 10731 10731 10731 10729 10729 10735 10734 10725 10721 10720 10718 10717 10716 10715 10714 10713 10712 10711 10710 10710 10709 10707
10622 10625 10627 10631 10634 10639 10644 10645 10643 10645 10646 10644 10646 10649 10651 10653 10655 10657 10657 10668 10688 10689 10682 10683 10683 10686 10688 10685 10685 10685 10690 10692 10687 10688 10689 10689 10693 10695 10698 10701 10701 10702 10704 10708 10712 10713 10710 10710 10710 10710 10712 10713 10713 10713 10715 10717 10718 10718 10717 10717 10719 10719 10720 10722 10723 10725 10726 10727 10727 10722 10722 10730 10732 10725 10718 10715 10712 10710 10709 10708 10707 10706 10705 10704 10704 10703 10702 10700
10614 10617 10620 10623 10627 10633 10639 10640 10638 10636 10636 10636 10638 10641 10644 10645 10647 10649 10650 10666 10685 10684 10680 10679 10676 10676 10678 10677 10678 10678 10681 10683 10682 10682 10682 10683 10687 10689 10692 10693 10695 10698 10699 10701 10705 10705 10705 10705 10703 10704 10706 10707 10706 10708 10709 10710 10712 10712 10712 10712 10712 10713 10715 10716 10718 10719 10720 10723 10722 10715 10716 10723 10728 10725 10716 10710 10707 10705 10702 10700 10699 10698 10697 10696 10696 10695 10693 10692
10606 10609 10612 10616 10623 10628 10631 10634 10631 10627 10628 10628 10629 10632 10635 10637 10640 10640 10647 10667 10679 10677 10676 10675 10671 10669 10668 10669 10670 10670 10672 10673 10675 10676 10676 10678 10681 10683 10686 10687 10690 10692 10693 10696 10698 10697 10698 10698 10698 10698 10699 10700 10701 10702 10703 10704 10705 10705 10705 10706 10706 10708 10710 10711 10712 10712 10714 10719 10716 10710 10711 10716 10721 10722 10713 10706 10704 10701 10697 10695 10693 10691 10689 10689 10688 10686 10685 10683
10599 10602 10604 10610 10617 10619 10622 10626 10624 10620 10619 10619 10619 10622 10626 10630 10630 10633 10650 10666 10667 10667 10672 10670 10667 10664 10660 10660 10660 10661 10664 10665 10667 10670 10671 10673 10674 10677 10680 10681 10683 10685 10687 10690 10689 10688 10690 10691 10692 10692 10693 10695 10695 10695 10696 10697 10698 10698 10699 10700 10701 10702 10704 10704 10706 10705 10708 10712 10709 10706 10707 10709 10714 10713 10706 10703 10700 10697 10695 10691 10688 10686 10684 10683 10682 10680 10678 10676
10590 10593 10596 10603 10608 10610 10615 10618 10615 10610 10609 10610 10611 10614 10618 10619 10621 10635 10653 10657 10652 10659 10665 10662 10661 10658 10653 10652 10652 10653 10656 10658 10661 10662 10664 10666 10669 10672 10673 10674 10677 10677 10681 10683 10680 10680 10683 10685 10685 10686 10687 10688 10688 10689 10689 10690 10691 10692 10694 10694 10694 10695 10696 10698 10698 10698 10701 10704 10703 10702 10702 10704 10706 10702 10696 10696 10693 10692 10690 10686 10683 10681 10679 10677 10675 10673 10671 10670
10581 10584 10588 10593 10598 10603 10607 10608 10606 10602 10601 10603 10603 10607 10609 10608 10620 10640 10646 10643 10644 10652 10654 10653 10653 10650 10647 10647 10647 10646 10647 10650 10653 10654 10657 10661 10664 10666 10667 10669 10670 10670 10674 10675 10673 10675 10677 10678 10678 10679 10680 10680 10681 10681 10681 10683 10685 10687 10687 10686 10686 10687 10688 10690 10690 10691 10695 10696 10696 10697 10697 10699 10700 10693 10688 10687 10686 10684 10681 10678 10676 10673 10670 10669 10667 10664 10663 10662
10572 10574 10578 10584 10590 10596 10599 10600 10600 10596 10593 10593 10595 10599 10597 10602 10625 10639 10635 10635 10638 10640 10643 10644 10643 10642 10641 10642 10642 10641 10640 10643 10645 10647 10650 10653 10657 10661 10662 10663 10664 10664 10666 10667 10667 10668 10670 10671 10671 10671 10672 10673 10674 10674 10674 10677 10678 10679 10679 10678 10679 10678 10678 10681 10683 10685 10688 10688 10689 10690 10689 10691 10690 10686 10683 10680 10677 10674 10671 10669 10666 10663 10661 10659 10657 10655 10653 10653
10562 10566 10570 10577 10584 10590 10593 10593 10593 10589 10585 10586 10587 10586 10589 10606 10627 10631 10627 10628 10627 10627 10632 10633 10634 10636 10637 10638 10639 10638 10637 10638 10640 10640 10641 10645 10650 10654 10656 10657 10658 10658 10658 10658 10659 10660 10662 10665 10664 10663 10666 10666 10666 10668 10668 10669 10671 10671 10671 10672 10672 10668 10667 10673 10677 10679 10679 10680 10683 10683 10681 10682 10680 10679 10678 10673 10669 10666 10663 10660 10656 10653 10652 10649 10648 10646 10644 10643
10553 10558 10563 10571 10580 10584 10584 10583 10584 10581 10577 10577 10575 10574 10589 10611 10619 10617 10619 10619 10617 10619 10622 10623 10628 10632 10634 10636 10635 10634 10632 10632 10633 10633 10635 10638 10643 10648 10650 10650 10649 10650 10651 10649 10650 10653 10656 10658 10657 10656 10658 10658 10659 10661 10661 10662 10663 10664 10665 10664 10661 10658 10661 10666 10669 10670 10669 10671 10676 10675 10674 10674 10671 10671 10671 10665 10660 10658 10654 10649 10645 10642 10642 10640 10639 10638 10636 10634
10546 10552 10557 10567 10574 10574 10574 10575 10574 10571 10568 10566 10563 10570 10591 10605 10605 10606 10612 10612 10611 10613 10613 10616 10623 10626 10628 10630 10629 10628 10626 10625 10627 10627 10628 10631 10636 10642 10643 10641 10641 10643 10643 10640 10642 10647 10649 10650 10650 10648 10649 10651 10652 10653 10654 10655 10655 10656 10656 10654 10651 10652 10656 10657 10658 10661 10659 10660 10666 10669 10668 10667 10665 10664 10663 10656 10651 10648 10644 10638 10634 10632 10631 10631 10630 10628 10626 10624
10540 10541 10547 10560 10565 10564 10566 10565 10563 10561 10558 10553 10553 10569 10588 10595 10597 10600 10602 10603 10605 10603 10604 10609 10614 10616 10618 10621 10622 10620 10617 10619 10621 10621 10622 10625 10631 10637 10636 10632 10633 10634 10633 10632 10635 10640 10640 10642 10643 10642 10642 10643 10644 10646 10648 10647 10646 10646 10646 10645 10644 10647 10648 10647 10647 10649 10649 10649 10655 10661 10661 10661 10660 10657 10652 10649 10643 10638 10634 10629 10625 10623 10621 10620 10620 10617 10615 10614
10529 10529 10541 10556 10556 10555 10557 10554 10553 10551 10545 10539 10546 10569 10585 10586 10589 10590 10589 10593 10594 10593 10597 10603 10604 10605 10609 10612 10613 10611 10610 10613 10615 10614 10616 10620 10626 10631 10628 10624 10624 10624 10623 10624 10628 10631 10632 10634 10637 10636 10634 10634 10637 10640 10640 10638 10635 10636 10638 10639 10638 10638 10639 10638 10637 10637 10638 10638 10643 10651 10654 10655 10653 10647 10643 10641 10634 10626 10623 10620 10617 10615 10613 10611 10609 10607 10605 10604
10517 10520 10537 10549 10544 10544 10546 10540 10538 10535 10531 10531 10545 10568 10577 10575 10578 10581 10580 10583 10585 10587 10593 10595 10594 10596 10601 10603 10603 10603 10603 10606 10608 10608 10610 10615 10620 10623 10620 10617 10615 10614 10614 10616 10620 10624 10624 10625 10628 10628 10626 10628 10631 10631 10628 10627 10628 10629 10631 10632 10631 10629 10628 10627 10627 10627 10627 10627 10631 10636 10644 10649 10644 10638 10635 10631 10622 10617 10613 10610 10607 10606 10605 10602 10600 10598 10596 10594
10507 10511 10530 10539 10532 10532 10532 10522 10521 10523 10523 10530 10545 10561 10566 10565 10570 10574 10573 10573 10575 10580 10585 10586 10586 10588 10591 10594 10595 10595 10595 10597 10601 10602 10604 10609 10612 10613 10611 10608 10607 10606 10606 10609 10613 10614 10614 10615 10617 10619 10620 10622 10621 10619 10618 10620 10621 10622 10622 10623 10622 10619 10616 10615 10618 10620 10617 10616 10620 10621 10630 10641 10635 10627 10625 10619 10612 10609 10604 10600 10598 10596 10594 10592 10590 10589 10587 10584
10495 10503 10521 10526 10519 10519 10516 10509 10512 10516 10517 10529 10544 10550 10551 10555 10561 10563 10563 10563 10566 10570 10575 10577 10579 10581 10583 10586 10587 10587 10586 10589 10592 10594 10597 10602 10603 10602 10602 10601 10601 10601 10600 10601 10603 10602 10602 10605 10608 10610 10612 10611 10611 10612 10612 10612 10612 10613 10614 10613 10609 10606 10606 10605 10608 10612 10607 10607 10610 10606 10615 10631 10627 10615 10610 10605 10602 10599 10593 10591 10591 10587 10583 10581 10580 10579 10576 10574
10486 10497 10508 10509 10508 10509 10503 10498 10503 10506 10512 10528 10537 10535 10537 10546 10550 10553 10556 10557 10558 10563 10566 10569 10571 10573 10575 10577 10577 10578 10579 10579 10582 10585 10589 10593 10595 10594 10594 10593 10594 10593 10592 10593 10594 10591 10590 10594 10599 10600 10602 10602 10604 10606 10606 10604 10604 10604 10602 10600 10598 10598 10599 10595 10597 10600 10597 10601 10602 10593 10602 10620 10616 10604 10597 10591 10588 10587 10583 10583 10581 10576 10573 10571 10569 10567 10564 10560
10479 10488 10494 10497 10501 10498 10489 10489 10496 10502 10511 10522 10523 10522 10529 10537 10540 10545 10550 10551 10551 10554 10556 10559 10562 10563 10565 10566 10568 10570 10571 10570 10573 10577 10580 10585 10587 10586 10584 10583 10584 10584 10583 10583 10584 10580 10579 10584 10589 10590 10593 10596 10597 10598 10598 10596 10593 10590 10591 10592 10591 10591 10589 10587 10588 10586 10587 10594 10591 10582 10591 10604 10601 10592 10584 10578 10576 10575 10573 10572 10570 10566 10563 10561 10559 10555 10551 10546
10470 10475 10480 10485 10487 10483 10481 10487 10493 10497 10503 10507 10509 10513 10519 10524 10531 10538 10540 10540 10543 10545 10546 10549 10552 10553 10554 10556 10560 10564 10565 10565 10566 10567 10570 10575 10577 10576 10574 10572 10573 10574 10573 10573 10573 10570 10569 10574 10579 10581 10585 10588 10588 10589 10589 10585 10581 10582 10586 10586 10583 10583 10581 10579 10578 10575 10577 10580 10578 10577 10580 10582 10584 10580 10569 10566 10567 10564 10560 10559 10557 10556 10553 10550 10547 10543 10539 10533
10457 10461 10468 10473 10473 10472 10476 10482 10483 10485 10491 10495 10499 10504 10508 10514 10524 10528 10527 10530 10535 10536 10537 10540 10542 10543 10545 10549 10553 10556 10557 10557 10556 10558 10561 10563 10564 10564 10563 10562 10562 10563 10562 10562 10562 10560 10560 10565 10570 10573 10576 10577 10577 10578 10578 10576 10574 10576 10579 10577 10575 10575 10574 10571 10567 10567 10567 10562 10565 10574 10566 10557 10567 10567 10553 10553 10556 10549 10546 10546 10544 10544 10540 10536 10534 10531 10526 10518
10444 10449 10457 10462 10462 10461 10467 10474 10475 10478 10485 10488 10488 10494 10500 10505 10511 10514 10515 10521 10526 10527 10527 10528 10531 10535 10539 10543 10544 10544 10545 10545 10546 10552 10554 10552 10552 10552 10551 10551 10550 10550 10551 10551 10550 10550 10551 10555 10561 10563 10565 10566 10566 10566 10568 10568 10567 10567 10568 10569 10569 10567 10565 10563 10558 10558 10556 10546 10551 10563 10549 10541 10555 10552 10537 10538 10538 10533 10533 10533 10530 10527 10522 10520 10519 10516 10510 10502
10432 10439 10447 10452 10451 10451 10458 10468 10470 10472 10477 10476 10476 10483 10489 10491 10496 10502 10507 10512 10514 10516 10515 10517 10524 10531 10532 10533 10531 10529 10531 10534 10537 10545 10547 10543 10542 10540 10538 10538 10536 10537 10539 10538 10539 10540 10540 10545 10551 10552 10555 10558 10556 10555 10557 10559 10558 10559 10560 10561 10563 10560 10557 10554 10550 10548 10543 10533 10538 10544 10533 10532 10543 10534 10521 10519 10518 10517 10519 10517 10513 10510 10506 10505 10502 10498 10491 10484
10423 10431 10438 10441 10442 10444 10451 10459 10461 10461 10464 10465 10466 10470 10475 10479 10486 10492 10495 10497 10499 10503 10505 10508 10517 10522 10520 10520 10518 10516 10520 10526 10530 10534 10534 10531 10530 10529 10527 10526 10525 10527 10528 10527 10528 10529 10530 10536 10540 10540 10543 10546 10545 10545 10547 10547 10547 10551 10554 10556 10556 10555 10551 10545 10541 10536 10526 10522 10527 10525 10518 10525 10530 10515 10503 10502 10501 10501 10501 10498 10496 10494 10492 10489 10485 10479 10473 10466
10417 10422 10427 10430 10432 10436 10441 10447 10450 10451 10454 10455 10456 10459 10464 10469 10475 10480 10482 10483 10488 10493 10494 10498 10506 10508 10506 10505 10504 10505 10512 10518 10519 10519 10519 10518 10517 10517 10516 10515 10516 10517 10517 10517 10518 10519 10520 10525 10529 10529 10529 10532 10535 10534 10532 10534 10535 10538 10547 10553 10551 10547 10543 10535 10529 10523 10515 10514 10514 10507 10505 10514 10514 10497 10487 10487 10485 10483 10482 10482 10481 10479 10476 10471 10467 10462 10456 10450
10409 10412 10416 10420 10423 10427 10431 10434 10437 10440 10443 10444 10447 10451 10456 10461 10466 10470 10470 10471 10476 10479 10481 10487 10493 10491 10489 10490 10492 10499 10506 10506 10504 10504 10505 10505 10505 10504 10502 10502 10504 10505 10505 10506 10507 10508 10510 10513 10517 10517 10514 10518 10524 10518 10515 10518 10516 10522 10543 10549 10538 10532 10530 10522 10517 10513 10508 10502 10496 10491 10494 10498 10493 10482 10476 10473 10469 10466 10468 10468 10465 10461 10457 10453 10449 10444 10439 10435
10400 10403 10407 10411 10413 10417 10421 10423 10425 10426 10429 10434 10438 10442 10447 10451 10455 10457 10456 10458 10463 10467 10470 10476 10479 10475 10475 10479 10485 10491 10493 10491 10491 10492 10492 10491 10491 10490 10489 10490 10492 10493 10493 10494 10494 10496 10499 10501 10503 10503 10499 10503 10507 10504 10501 10498 10495 10514 10541 10537 10518 10515 10515 10510 10506 10503 10495 10486 10479 10477 10479 10477 10471 10466 10463 10459 10455 10454 10455 10452 10447 10443 10438 10434 10431 10427 10422 10420